Time,TemperatureF,DewpointF,PressureIn,WindDirection,WindDirectionDegrees,WindSpeedMPH,WindSpeedGustMPH,Humidity,HourlyPrecipIn,Conditions,Clouds,dailyrainin,SolarRadiationWatts/m^2,SoftwareType,DateUTC
2013-04-13 00:03:00,44.0,44.0,-100.00,WNW,299,6.0,16.0,100,0.00,,,0.59,0.000000,,2013-04-13 04:03:00,
2013-04-13 00:33:00,41.0,36.0,-100.00,NW,311,3.0,14.0,82,0.00,,,0.59,0.000000,,2013-04-13 04:33:00,
2013-04-13 00:42:00,41.0,36.0,-100.00,NW,311,3.0,14.0,82,0.00,,,0.59,0.000000,,2013-04-13 04:42:00,
2013-04-13 00:53:00,41.0,36.0,-100.00,NW,311,3.0,14.0,82,0.00,,,0.59,0.000000,,2013-04-13 04:53:00,
2013-04-13 01:03:00,41.0,36.0,-100.00,NW,311,3.0,14.0,82,0.00,,,0.59,0.000000,,2013-04-13 05:03:00,
2013-04-13 01:32:00,37.0,33.0,-100.00,NW,309,3.0,9.0,85,0.00,,,0.58,0.000000,,2013-04-13 05:32:00,
2013-04-13 01:43:00,37.0,33.0,-100.00,NW,309,3.0,9.0,85,0.00,,,0.58,0.000000,,2013-04-13 05:43:00,
2013-04-13 01:53:00,37.0,33.0,-100.00,NW,309,3.0,9.0,85,0.00,,,0.58,0.000000,,2013-04-13 05:53:00,
2013-04-13 02:02:00,37.0,33.0,-100.00,NW,309,3.0,9.0,85,0.00,,,0.58,0.000000,,2013-04-13 06:02:00,
2013-04-13 02:37:00,36.0,33.0,-100.00,WNW,287,3.0,9.0,87,0.00,,,0.58,0.000000,,2013-04-13 06:37:00,
2013-04-13 02:49:00,36.0,33.0,-100.00,WNW,287,3.0,9.0,87,0.00,,,0.58,0.000000,,2013-04-13 06:49:00,
2013-04-13 02:56:00,36.0,33.0,-100.00,WNW,287,3.0,9.0,87,0.00,,,0.58,0.000000,,2013-04-13 06:56:00,
2013-04-13 03:07:00,36.0,33.0,-100.00,WNW,287,3.0,9.0,87,0.00,,,0.58,0.000000,,2013-04-13 07:07:00,
2013-04-13 03:46:00,36.0,33.0,-100.00,WNW,293,3.0,6.0,87,0.00,,,0.57,0.000000,,2013-04-13 07:46:00,
2013-04-13 03:57:00,36.0,33.0,-100.00,WNW,293,3.0,6.0,87,0.00,,,0.57,0.000000,,2013-04-13 07:57:00,
2013-04-13 04:07:00,36.0,33.0,-100.00,WNW,293,3.0,6.0,87,0.00,,,0.57,0.000000,,2013-04-13 08:07:00,
2013-04-13 04:35:00,38.0,34.0,-100.00,WNW,283,4.0,8.0,87,0.00,,,0.57,0.000000,,2013-04-13 08:35:00,
2013-04-13 04:47:00,38.0,34.0,-100.00,WNW,283,4.0,8.0,87,0.00,,,0.57,0.000000,,2013-04-13 08:47:00,
2013-04-13 04:55:00,38.0,34.0,-100.00,WNW,283,4.0,8.0,87,0.00,,,0.57,0.000000,,2013-04-13 08:55:00,
2013-04-13 05:05:00,38.0,34.0,-100.00,WNW,283,4.0,8.0,87,0.00,,,0.57,0.000000,,2013-04-13 09:05:00,
2013-04-13 05:38:00,35.0,31.0,-100.00,WNW,294,3.0,8.0,85,0.00,,,0.57,0.000000,,2013-04-13 09:38:00,
2013-04-13 05:53:00,35.0,31.0,-100.00,WNW,294,3.0,8.0,85,0.00,,,0.57,0.000000,,2013-04-13 09:53:00,
2013-04-13 06:05:00,35.0,31.0,-100.00,WNW,294,3.0,8.0,85,0.00,,,0.57,0.000000,,2013-04-13 10:05:00,
2013-04-13 06:38:00,35.0,31.0,-100.00,WNW,286,3.0,7.0,86,0.00,,,0.52,0.000000,,2013-04-13 10:38:00,
2013-04-13 06:51:00,35.0,31.0,-100.00,WNW,286,3.0,7.0,86,0.00,,,0.52,0.000000,,2013-04-13 10:51:00,
2013-04-13 07:08:00,36.0,33.0,-100.00,WNW,298,2.0,6.0,87,0.00,,,0.45,8.000000,,2013-04-13 11:08:00,
2013-04-13 07:35:00,36.0,33.0,-100.00,WNW,298,2.0,6.0,87,0.00,,,0.45,8.000000,,2013-04-13 11:35:00,
2013-04-13 07:46:00,36.0,33.0,-100.00,WNW,298,2.0,6.0,87,0.00,,,0.45,8.000000,,2013-04-13 11:46:00,
2013-04-13 07:54:00,36.0,33.0,-100.00,WNW,298,2.0,6.0,87,0.00,,,0.45,8.000000,,2013-04-13 11:54:00,
2013-04-13 08:08:00,39.0,34.0,-100.00,WNW,288,3.0,7.0,82,0.00,,,0.16,57.000000,,2013-04-13 12:08:00,
2013-04-13 08:37:00,39.0,34.0,-100.00,WNW,288,3.0,7.0,82,0.00,,,0.16,57.000000,,2013-04-13 12:37:00,
2013-04-13 08:49:00,39.0,34.0,-100.00,WNW,288,3.0,7.0,82,0.00,,,0.16,57.000000,,2013-04-13 12:49:00,
2013-04-13 09:37:00,41.0,34.0,-100.00,West,279,4.0,11.0,76,0.00,,,0.08,103.000000,,2013-04-13 13:37:00,
2013-04-13 09:49:00,41.0,34.0,-100.00,West,279,4.0,11.0,76,0.00,,,0.08,103.000000,,2013-04-13 13:49:00,
2013-04-13 09:57:00,41.0,34.0,-100.00,West,279,4.0,11.0,76,0.00,,,0.08,103.000000,,2013-04-13 13:57:00,
2013-04-13 10:05:00,41.0,34.0,-100.00,West,279,4.0,11.0,76,0.00,,,0.08,103.000000,,2013-04-13 14:05:00,
2013-04-13 10:39:00,45.0,34.0,-100.00,West,275,5.0,11.0,66,0.00,,,0.03,290.000000,,2013-04-13 14:39:00,
2013-04-13 10:48:00,45.0,34.0,-100.00,West,275,5.0,11.0,66,0.00,,,0.03,290.000000,,2013-04-13 14:48:00,
2013-04-13 11:00:00,45.0,34.0,-100.00,West,275,5.0,11.0,66,0.00,,,0.03,290.000000,,2013-04-13 15:00:00,
2013-04-13 11:05:00,45.0,34.0,-100.00,West,275,5.0,11.0,66,0.00,,,0.03,290.000000,,2013-04-13 15:05:00,
2013-04-13 11:08:00,43.0,30.0,-100.00,WNW,292,6.0,14.0,59,0.00,,,0.03,290.000000,,2013-04-13 15:08:00,
2013-04-13 11:38:00,43.0,30.0,-100.00,WNW,292,6.0,14.0,59,0.00,,,0.03,290.000000,,2013-04-13 15:38:00,
2013-04-13 11:45:00,43.0,30.0,-100.00,WNW,292,6.0,14.0,59,0.00,,,0.03,290.000000,,2013-04-13 15:45:00,
2013-04-13 11:59:00,43.0,30.0,-100.00,WNW,292,6.0,14.0,59,0.00,,,0.03,290.000000,,2013-04-13 15:59:00,
2013-04-13 12:08:00,43.0,30.0,-100.00,WNW,291,5.0,14.0,59,0.00,,,0.01,266.000000,,2013-04-13 16:08:00,
2013-04-13 12:37:00,43.0,30.0,-100.00,WNW,291,5.0,14.0,59,0.00,,,0.01,266.000000,,2013-04-13 16:37:00,
2013-04-13 12:48:00,43.0,30.0,-100.00,WNW,291,5.0,14.0,59,0.00,,,0.01,266.000000,,2013-04-13 16:48:00,
2013-04-13 12:58:00,43.0,30.0,-100.00,WNW,291,5.0,14.0,59,0.00,,,0.01,266.000000,,2013-04-13 16:58:00,
2013-04-13 13:38:00,44.0,31.0,-100.00,West,265,6.0,12.0,60,0.00,,,0.01,204.000000,,2013-04-13 17:38:00,
2013-04-13 13:45:00,44.0,31.0,-100.00,West,265,6.0,12.0,60,0.00,,,0.01,204.000000,,2013-04-13 17:45:00,
2013-04-13 14:04:00,44.0,31.0,-100.00,West,265,6.0,12.0,60,0.00,,,0.01,204.000000,,2013-04-13 18:04:00,
2013-04-13 14:33:00,44.0,32.0,-100.00,West,274,6.0,16.0,62,0.00,,,0.01,187.000000,,2013-04-13 18:33:00,
2013-04-13 14:42:00,44.0,32.0,-100.00,West,274,6.0,16.0,62,0.00,,,0.01,187.000000,,2013-04-13 18:42:00,
2013-04-13 14:53:00,44.0,32.0,-100.00,West,274,6.0,16.0,62,0.00,,,0.01,187.000000,,2013-04-13 18:53:00,
2013-04-13 15:03:00,44.0,32.0,-100.00,West,274,6.0,16.0,62,0.00,,,0.01,187.000000,,2013-04-13 19:03:00,
2013-04-13 15:33:00,45.0,32.0,-100.00,WNW,296,7.0,13.0,61,0.00,,,0.01,224.000000,,2013-04-13 19:33:00,
2013-04-13 15:42:00,45.0,32.0,-100.00,WNW,296,7.0,13.0,61,0.00,,,0.01,224.000000,,2013-04-13 19:42:00,
2013-04-13 15:53:00,45.0,32.0,-100.00,WNW,296,7.0,13.0,61,0.00,,,0.01,224.000000,,2013-04-13 19:53:00,
2013-04-13 16:02:00,45.0,32.0,-100.00,WNW,296,7.0,13.0,61,0.00,,,0.01,224.000000,,2013-04-13 20:02:00,
2013-04-13 16:32:00,47.0,31.0,-100.00,WNW,297,7.0,14.0,54,0.00,,,0.01,362.000000,,2013-04-13 20:32:00,
2013-04-13 16:42:00,47.0,31.0,-100.00,WNW,297,7.0,14.0,54,0.00,,,0.01,362.000000,,2013-04-13 20:42:00,
2013-04-13 16:53:00,47.0,31.0,-100.00,WNW,297,7.0,14.0,54,0.00,,,0.01,362.000000,,2013-04-13 20:53:00,
2013-04-13 17:02:00,47.0,31.0,-100.00,WNW,297,7.0,14.0,54,0.00,,,0.01,362.000000,,2013-04-13 21:02:00,
2013-04-13 17:33:00,49.0,33.0,-100.00,WNW,298,6.0,15.0,53,0.00,,,0.01,307.000000,,2013-04-13 21:33:00,
2013-04-13 17:43:00,49.0,33.0,-100.00,WNW,298,6.0,15.0,53,0.00,,,0.01,307.000000,,2013-04-13 21:43:00,
2013-04-13 17:53:00,49.0,33.0,-100.00,WNW,298,6.0,15.0,53,0.00,,,0.01,307.000000,,2013-04-13 21:53:00,
2013-04-13 18:03:00,49.0,33.0,-100.00,WNW,298,6.0,15.0,53,0.00,,,0.01,307.000000,,2013-04-13 22:03:00,
2013-04-13 18:33:00,47.0,32.0,-100.00,NW,307,4.0,11.0,55,0.00,,,0.01,218.000000,,2013-04-13 22:33:00,
2013-04-13 18:42:00,47.0,32.0,-100.00,NW,307,4.0,11.0,55,0.00,,,0.01,218.000000,,2013-04-13 22:42:00,
2013-04-13 18:53:00,47.0,32.0,-100.00,NW,307,4.0,11.0,55,0.00,,,0.01,218.000000,,2013-04-13 22:53:00,
2013-04-13 19:02:00,47.0,32.0,-100.00,NW,307,4.0,11.0,55,0.00,,,0.01,218.000000,,2013-04-13 23:02:00,
2013-04-13 19:33:00,45.0,30.0,-100.00,WNW,302,4.0,9.0,55,0.00,,,0.01,67.000000,,2013-04-13 23:33:00,
2013-04-13 19:43:00,45.0,30.0,-100.00,WNW,302,4.0,9.0,55,0.00,,,0.01,67.000000,,2013-04-13 23:43:00,
2013-04-13 19:53:00,45.0,30.0,-100.00,WNW,302,4.0,9.0,55,0.00,,,0.01,67.000000,,2013-04-13 23:53:00,
2013-04-13 20:03:00,45.0,30.0,-100.00,WNW,302,4.0,9.0,55,0.00,,,0.01,67.000000,,2013-04-14 00:03:00,
2013-04-13 21:33:00,43.0,30.0,-100.00,WNW,291,3.0,9.0,61,-99.99,,,0.00,0.000000,,2013-04-14 01:33:00,
2013-04-13 21:43:00,43.0,30.0,-100.00,WNW,291,3.0,9.0,61,-99.99,,,0.00,0.000000,,2013-04-14 01:43:00,
2013-04-13 21:53:00,43.0,30.0,-100.00,WNW,291,3.0,9.0,61,-99.99,,,0.00,0.000000,,2013-04-14 01:53:00,
2013-04-13 22:02:00,43.0,30.0,-100.00,WNW,291,3.0,9.0,61,-99.99,,,0.00,0.000000,,2013-04-14 02:02:00,
2013-04-13 22:33:00,43.0,30.0,-100.00,WNW,293,4.0,12.0,60,0.00,,,0.00,0.000000,,2013-04-14 02:33:00,
2013-04-13 22:43:00,43.0,30.0,-100.00,WNW,293,4.0,12.0,60,0.00,,,0.00,0.000000,,2013-04-14 02:43:00,
2013-04-13 22:53:00,43.0,30.0,-100.00,WNW,293,4.0,12.0,60,0.00,,,0.00,0.000000,,2013-04-14 02:53:00,
2013-04-13 23:03:00,43.0,30.0,-100.00,WNW,293,4.0,12.0,60,0.00,,,0.00,0.000000,,2013-04-14 03:03:00,
2013-04-13 23:33:00,41.0,28.0,-100.00,WNW,301,3.0,8.0,59,0.00,,,0.00,0.000000,,2013-04-14 03:33:00,
2013-04-13 23:43:00,41.0,28.0,-100.00,WNW,301,3.0,8.0,59,0.00,,,0.00,0.000000,,2013-04-14 03:43:00,
2013-04-13 23:53:00,41.0,28.0,-100.00,WNW,301,3.0,8.0,59,0.00,,,0.00,0.000000,,2013-04-14 03:53:00,